When you browse on this site, cookies collect data to enhance your experience and personalize the content and advertising you see.
Visit our Privacy Policy to learn more. By continuing to use the site, you agree to this use of cookies and data.
  • En España
  • Lista de países
  • Para 7 días
  • Temperatura del agua
  • El tiempo en el mapa
  • Informadores
  • user-avatar
    Iniciar sesión

    Tiempo cada hora Shibam

    Hoy, 15 Noviembre, Viernes

    Tiempo Temperatura Precipitaciones Viento Presión Humedad
    00:00 +12°C° 0 mm 2 mps 560 mmHg 48%
    01:00 +12°C° 0 mm 2 mps 559 mmHg 49%
    02:00 +10°C° 0 mm 2 mps 559 mmHg 49%
    03:00 +10°C° 0 mm 2 mps 558 mmHg 51%
    04:00 +10°C° 0 mm 2 mps 558 mmHg 52%
    05:00 +9°C° 0 mm 2 mps 558 mmHg 52%
    06:00 +9°C° 0 mm 2 mps 559 mmHg 53%
    07:00 +11°C° 0 mm 1 mps 560 mmHg 48%
    08:00 +13°C° 0 mm 1 mps 561 mmHg 43%
    09:00 +15°C° 0 mm 1 mps 562 mmHg 39%
    10:00 +16°C° 0 mm 1 mps 562 mmHg 38%
    11:00 +18°C° 0 mm 1 mps 562 mmHg 36%
    12:00 +18°C° 0 mm 2 mps 562 mmHg 34%
    13:00 +18°C° 0 mm 2 mps 561 mmHg 37%
    14:00 +18°C° 0 mm 3 mps 561 mmHg 39%
    15:00 +18°C° 0 mm 4 mps 560 mmHg 41%
    16:00 +17°C° 0.2 mm 3 mps 560 mmHg 47%
    17:00 +16°C° 0.2 mm 3 mps 560 mmHg 52%
    18:00 +15°C° 0.2 mm 2 mps 559 mmHg 58%
    19:00 +14°C° 0.1 mm 2 mps 560 mmHg 57%
    20:00 +14°C° 0.1 mm 1 mps 560 mmHg 56%
    21:00 +14°C° 0.1 mm 1 mps 560 mmHg 55%
    22:00 +13°C° 0 mm 1 mps 559 mmHg 56%
    23:00 +12°C° 0 mm 0 mps 559 mmHg 57%

    Mañana, 16 Noviembre, Sábado

    Tiempo Temperatura Precipitaciones Viento Presión Humedad
    00:00 +11°C° 0 mm 0 mps 559 mmHg 58%
    01:00 +11°C° 0 mm 0 mps 558 mmHg 59%
    02:00 +11°C° 0 mm 0 mps 558 mmHg 59%
    03:00 +10°C° 0 mm 0 mps 557 mmHg 60%
    04:00 +11°C° 0 mm 1 mps 557 mmHg 60%
    05:00 +11°C° 0 mm 1 mps 557 mmHg 59%
    06:00 +10°C° 0 mm 1 mps 558 mmHg 59%
    07:00 +12°C° 0 mm 1 mps 558 mmHg 55%
    08:00 +13°C° 0 mm 1 mps 559 mmHg 50%
    09:00 +15°C° 0 mm 1 mps 560 mmHg 45%
    10:00 +16°C° 0 mm 2 mps 560 mmHg 42%
    11:00 +17°C° 0 mm 2 mps 560 mmHg 39%
    12:00 +18°C° 0 mm 3 mps 560 mmHg 37%
    13:00 +18°C° 0.1 mm 3 mps 560 mmHg 41%
    14:00 +18°C° 0.1 mm 3 mps 559 mmHg 45%
    15:00 +17°C° 0.1 mm 3 mps 558 mmHg 49%
    16:00 +17°C° 0.2 mm 3 mps 558 mmHg 53%
    17:00 +16°C° 0.2 mm 2 mps 558 mmHg 57%
    18:00 +15°C° 0.2 mm 2 mps 558 mmHg 61%
    19:00 +15°C° 0.3 mm 2 mps 558 mmHg 59%
    20:00 +14°C° 0.3 mm 1 mps 559 mmHg 56%
    21:00 +14°C° 0.3 mm 1 mps 559 mmHg 54%
    22:00 +13°C° 0 mm 1 mps 558 mmHg 55%
    23:00 +13°C° 0 mm 1 mps 558 mmHg 56%

    Pasado mañana, 17 Noviembre, Domingo

    Tiempo Temperatura Precipitaciones Viento Presión Humedad
    00:00 +12°C° 0 mm 0 mps 558 mmHg 56%
    01:00 +11°C° 0 mm 0 mps 557 mmHg 56%
    02:00 +11°C° 0 mm 0 mps 557 mmHg 56%
    03:00 +11°C° 0 mm 0 mps 556 mmHg 55%
    04:00 +11°C° 0 mm 1 mps 557 mmHg 55%
    05:00 +11°C° 0 mm 1 mps 557 mmHg 55%
    06:00 +11°C° 0 mm 1 mps 557 mmHg 55%
    07:00 +12°C° 0 mm 1 mps 558 mmHg 51%
    08:00 +14°C° 0 mm 1 mps 559 mmHg 47%
    09:00 +15°C° 0 mm 1 mps 560 mmHg 42%
    10:00 +16°C° 0 mm 2 mps 560 mmHg 39%
    11:00 +17°C° 0 mm 2 mps 560 mmHg 36%
    12:00 +18°C° 0 mm 3 mps 560 mmHg 33%
    13:00 +18°C° 0 mm 3 mps 560 mmHg 36%
    14:00 +18°C° 0 mm 3 mps 559 mmHg 39%
    15:00 +19°C° 0 mm 4 mps 559 mmHg 42%
    16:00 +17°C° 0.1 mm 3 mps 559 mmHg 49%
    17:00 +16°C° 0.1 mm 2 mps 559 mmHg 56%
    18:00 +15°C° 0.1 mm 1 mps 559 mmHg 64%
    19:00 +15°C° 0.2 mm 1 mps 559 mmHg 63%
    20:00 +15°C° 0.2 mm 1 mps 559 mmHg 63%
    21:00 +15°C° 0.2 mm 1 mps 559 mmHg 62%
    22:00 +14°C° 0 mm 1 mps 559 mmHg 61%
    23:00 +14°C° 0 mm 1 mps 559 mmHg 60%

    18 Noviembre, Lunes

    Tiempo Temperatura Precipitaciones Viento Presión Humedad
    00:00 +13°C° 0 mm 1 mps 559 mmHg 59%
    01:00 +13°C° 0 mm 1 mps 558 mmHg 60%
    02:00 +13°C° 0 mm 1 mps 558 mmHg 62%
    03:00 +11°C° 0 mm 0 mps 557 mmHg 63%
    04:00 +11°C° 0 mm 0 mps 557 mmHg 65%
    05:00 +10°C° 0 mm 0 mps 558 mmHg 67%
    06:00 +10°C° 0 mm 0 mps 558 mmHg 69%
    07:00 +13°C° 0 mm 1 mps 559 mmHg 62%
    08:00 +14°C° 0 mm 1 mps 560 mmHg 55%
    09:00 +16°C° 0 mm 1 mps 561 mmHg 48%
    10:00 +17°C° 0 mm 2 mps 561 mmHg 47%
    11:00 +18°C° 0 mm 2 mps 561 mmHg 45%
    12:00 +19°C° 0 mm 3 mps 561 mmHg 44%
    13:00 +18°C° 0.1 mm 3 mps 561 mmHg 48%
    14:00 +18°C° 0.1 mm 3 mps 560 mmHg 52%
    15:00 +18°C° 0.1 mm 3 mps 560 mmHg 56%
    16:00 +17°C° 0.3 mm 3 mps 560 mmHg 60%
    17:00 +17°C° 0.3 mm 2 mps 560 mmHg 64%
    18:00 +16°C° 0.3 mm 1 mps 560 mmHg 67%
    19:00 +16°C° 0.3 mm 1 mps 560 mmHg 67%
    20:00 +15°C° 0.3 mm 1 mps 560 mmHg 67%
    21:00 +15°C° 0.3 mm 1 mps 560 mmHg 67%
    22:00 +15°C° 0.1 mm 1 mps 560 mmHg 66%
    23:00 +14°C° 0.1 mm 1 mps 560 mmHg 66%

    19 Noviembre, Martes

    Tiempo Temperatura Precipitaciones Viento Presión Humedad
    00:00 +14°C° 0.1 mm 1 mps 559 mmHg 66%
    01:00 +13°C° 0 mm 0 mps 559 mmHg 66%
    02:00 +12°C° 0 mm 0 mps 559 mmHg 67%
    03:00 +12°C° 0 mm 0 mps 558 mmHg 67%
    04:00 +11°C° 0 mm 0 mps 558 mmHg 67%
    05:00 +11°C° 0 mm 0 mps 558 mmHg 67%
    06:00 +11°C° 0 mm 0 mps 558 mmHg 67%
    07:00 +13°C° 0 mm 1 mps 559 mmHg 61%
    08:00 +15°C° 0 mm 1 mps 560 mmHg 55%
    09:00 +16°C° 0 mm 1 mps 561 mmHg 48%
    10:00 +17°C° 0 mm 2 mps 561 mmHg 47%
    11:00 +18°C° 0 mm 2 mps 561 mmHg 45%
    12:00 +19°C° 0 mm 3 mps 561 mmHg 43%
    13:00 +19°C° 0.1 mm 3 mps 561 mmHg 48%
    14:00 +19°C° 0.1 mm 3 mps 560 mmHg 52%
    15:00 +19°C° 0.1 mm 4 mps 560 mmHg 57%
    16:00 +18°C° 0.2 mm 3 mps 559 mmHg 62%
    17:00 +17°C° 0.2 mm 2 mps 559 mmHg 67%
    18:00 +16°C° 0.2 mm 1 mps 559 mmHg 72%
    19:00 +16°C° 0.2 mm 1 mps 559 mmHg 70%
    20:00 +16°C° 0.2 mm 1 mps 559 mmHg 67%
    21:00 +16°C° 0.2 mm 1 mps 560 mmHg 64%
    22:00 +15°C° 0.1 mm 1 mps 559 mmHg 64%
    23:00 +14°C° 0.1 mm 0 mps 559 mmHg 64%

    20 Noviembre, Miércoles

    Tiempo Temperatura Precipitaciones Viento Presión Humedad
    00:00 +13°C° 0.1 mm 0 mps 559 mmHg 63%
    01:00 +13°C° 0.1 mm 0 mps 558 mmHg 65%
    02:00 +13°C° 0.1 mm 0 mps 558 mmHg 68%
    03:00 +12°C° 0.1 mm 0 mps 557 mmHg 70%
    04:00 +12°C° 0 mm 0 mps 557 mmHg 73%
    05:00 +11°C° 0 mm 0 mps 557 mmHg 76%
    06:00 +11°C° 0 mm 0 mps 557 mmHg 79%
    07:00 +12°C° 0 mm 0 mps 558 mmHg 72%
    08:00 +15°C° 0 mm 1 mps 559 mmHg 65%
    09:00 +16°C° 0 mm 1 mps 560 mmHg 58%
    10:00 +17°C° 0.1 mm 2 mps 560 mmHg 54%
    11:00 +18°C° 0.1 mm 2 mps 560 mmHg 51%
    12:00 +19°C° 0.1 mm 3 mps 560 mmHg 47%
    13:00 +18°C° 0.1 mm 3 mps 560 mmHg 50%
    14:00 +18°C° 0.1 mm 3 mps 559 mmHg 54%
    15:00 +18°C° 0.1 mm 4 mps 559 mmHg 57%
    16:00 +17°C° 0.1 mm 3 mps 559 mmHg 61%
    17:00 +16°C° 0.1 mm 1 mps 558 mmHg 65%
    18:00 +15°C° 0.1 mm 0 mps 558 mmHg 69%
    19:00 +16°C° 0.2 mm 1 mps 559 mmHg 66%
    20:00 +16°C° 0.2 mm 1 mps 559 mmHg 64%
    21:00 +16°C° 0.2 mm 1 mps 559 mmHg 62%
    22:00 +15°C° 0.2 mm 1 mps 559 mmHg 63%
    23:00 +15°C° 0.2 mm 1 mps 559 mmHg 64%
    Mostrar más